Location: B?lite?ti
(46.2833°N, 22.7333°E)
Time: 04:35:47
(UTC+00:00)

Cosmos 1340 - Pass Details

Date: 24 January 2021
Orbit: 500 x 504 km, 81.2° (Epoch: 26 February)

Event Time Altitude Azimuth Distance (km) Brightness Sun altitude
Rises 17:46:59 0° 213° (SSW) 2,585 6.7 -24.9°
Reaches altitude 10° 17:49:16 10° 224° (SW) 1,706 5.9 -25.2°
Maximum altitude 17:52:37 31° 287° (WNW) 911 4.5 -25.8°
Enters shadow 17:54:28 20° 335° (NNW) 1,212 4.8 -26.1°
